FIN7AC EFHK-GCTS

Flight info

Callsign FIN7AC
Flight time N/A
Altitude 34000
Route NUNTO4N NUNTO Y367 OLPED DCT OBEVI DCT NISIX DCT TOKSI DCT DOSUR DCT MOXCI DCT BEDUM DCT ANDIK DCT NOGRO M40 SABER L980 MANGO L620 SAM/N0448F350 M195 LORKU DCT EBOMO DCT COQUE DCT KORUL DCT DEMOS DCT ELNUB DCT IZENI DCT BEXAL UN866 OSDIV/N0456F370 UN866 KONBA KONBA2Z
Aircraft A21N/M-SDE2E3FGHIRWXY/LB1

Departure

Time 2026-04-22 10:21
Airport Helsinki Vantaa Airport (EFHK)

Arrival

Time N/A
Airport Tenerife Sur Airport (GCTS)
Time Latitude Longitude Altitude Speed Heading
2026-04-22 10:14 60.33033 24.95439 201 ft 0 kts 317°
2026-04-22 10:19 60.33034 24.95438 201 ft 1 kts 317°
2026-04-22 10:19 60.33051 24.95404 202 ft 5 kts 314°
2026-04-22 10:19 60.33090 24.95324 203 ft 10 kts 315°
2026-04-22 10:20 60.33112 24.95176 206 ft 13 kts 264°
2026-04-22 10:20 60.33108 24.94946 204 ft 17 kts 272°
2026-04-22 10:20 60.33114 24.94696 203 ft 18 kts 274°
2026-04-22 10:20 60.33090 24.94394 202 ft 32 kts 243°
2026-04-22 10:21 60.32792 24.93668 199 ft 102 kts 233°
2026-04-22 10:21 60.32168 24.92325 186 ft 160 kts 228°
2026-04-22 10:21 60.31375 24.90687 741 ft 162 kts 233°
2026-04-22 10:21 60.30637 24.89002 1304 ft 162 kts 238°
2026-04-22 10:22 60.29993 24.87174 1857 ft 161 kts 246°
2026-04-22 10:22 60.29536 24.85098 2234 ft 165 kts 272°
2026-04-22 10:22 60.29721 24.82753 2558 ft 178 kts 291°
2026-04-22 10:22 60.30117 24.80304 3000 ft 194 kts 289°
2026-04-22 10:23 60.30218 24.77450 3428 ft 220 kts 266°
2026-04-22 10:23 60.29733 24.74346 3896 ft 243 kts 255°
2026-04-22 10:23 60.29079 24.71125 4457 ft 256 kts 254°
2026-04-22 10:23 60.28389 24.67807 5241 ft 260 kts 254°
2026-04-22 10:24 60.27696 24.64476 6031 ft 262 kts 255°
2026-04-22 10:24 60.26999 24.61098 6778 ft 266 kts 255°
2026-04-22 10:24 60.26297 24.57678 7504 ft 269 kts 255°
2026-04-22 10:24 60.25585 24.54196 8218 ft 272 kts 256°
2026-04-22 10:25 60.24863 24.50673 8927 ft 275 kts 255°
2026-04-22 10:25 60.24068 24.47182 9639 ft 279 kts 250°
2026-04-22 10:25 60.23156 24.43727 10247 ft 285 kts 249°
2026-04-22 10:25 60.22195 24.40136 10579 ft 301 kts 249°
2026-04-22 10:26 60.21180 24.36355 10865 ft 317 kts 249°
2026-04-22 10:26 60.20100 24.32347 11150 ft 333 kts 248°